Regional Weather Roundup
Issued by NWS Sioux Falls, SD

Home | Current Version | Previous Version | Text Only | Print | Product List | Glossary On
Versions: 1 2 3 4 5 6 7 8 9 10 11 12 13 14 15 16 17 18 19 20 21 22 23 24 25 26 27 28 29 30 31 32 33 34 35 36 37 38 39 40 41 42 43 44 45 46 47 48 49 50
000
ASUS43 KFSD 200810
RWRFSD

WEATHER ROUNDUP FOR SE SOUTH DAKOTA/SW MINNESOTA/NW IOWA
NATIONAL WEATHER SERVICE SIOUX FALLS SD
200 AM CST TUE FEB 20 2018

NOTE: "FAIR" INDICATES FEW OR NO CLOUDS BELOW 12,000 FEET WITH NO
SIGNIFICANT WEATHER AND OR OBSTRUCTIONS TO VISIBILITY.


SDZ038>040-050-052>070-200900-
SOUTHEAST SOUTH DAKOTA

CITY           SKY/WX    TMP DP  RH WIND       PRES   REMARKS
BROOKINGS      LGT SNOW   6   3  87 N15       29.85F VSB 1   WCI -12
CHAMBERLAIN    CLOUDY     6   2  86 NW14      29.99F WCI -12
HURON          LGT SNOW   4   1  88 N15       30.01R FOG     WCI -14
MADISON        LGT SNOW   7   7 100 N13       29.89S WCI  -9
MITCHELL       SNOW       6   3  87 NW15      30.00R VSB 1/2 WCI -12
SIOUX FALLS    LGT SNOW  11   8  88 N10       29.88S VSB 1   WCI  -3
WINNER         LGT SNOW   4  -1  80 N16       29.98F WCI -15
YANKTON        LGT SNOW  12   8  84 NW16      29.95R FOG     WCI  -5
$$

MNZ071-072-080-081-089-090-097-098-200900-
SOUTHWEST MINNESOTA

CITY           SKY/WX    TMP DP  RH WIND       PRES   REMARKS
FAIRMONT       LGT SNOW  19  17  92 N8        29.81R FOG     WCI   9
JACKSON        CLOUDY    18  16  93 N5        29.84R FOG     WCI  11
LUVERNE        LGT SNOW  14  10  85 N10       29.89R VSB 3/4 WCI   1
MARSHALL       HVY SNOW  10   9  92 NW14      29.90R VSB 1/4 WCI  -5
MONTEVIDEO     FLURRIES  12  10  92 NE12      29.91R WCI  -2
PIPESTONE      CLOUDY     9   5  85 N10G18    29.86R WCI  -6
REDWOOD FALLS  CLOUDY    15  13  91 N13       29.88F WCI   1
TRACY          LGT SNOW  14  12  92 N13       29.88R WCI   0
WINDOM         LGT SNOW  16   3  57 CALM      29.82R VSB 1
WORTHINGTON    FLURRIES  14  11  87 N15       29.85R WCI  -1
$$

IAZ001>003-012>014-020>022-031-032-NEZ013-014-SDZ071-200900-
NORTHWEST IOWA

CITY           SKY/WX    TMP DP  RH WIND       PRES   REMARKS
CHEROKEE       CLOUDY    19  18  94 NW5       29.87R WCI  13
DENISON        CLOUDY    23  21  93 NW8       29.86R WCI  14
ESTHERVILLE    CLOUDY    18  16  92 NW8       29.83R WCI   8
LE MARS        CLOUDY    18  16  93 MISG      29.89R
ORANGE CITY    CLOUDY    18  18 100 NW6       29.88R WCI   9
SHELDON        CLOUDY    16  14  93 MISG      29.85R
SIOUX CITY     CLOUDY    18  15  88 NW14      29.91R WCI   4
SPENCER        MIX PCPN  19  16  88 NW7       29.85R WCI  10
STORM LAKE     CLOUDY    19  18  93 MISG      29.83R
$$

ABBREVIATIONS USED IN REMARKS
   TC - TEMPERATURE IN CELSIUS
  WCI - WIND CHILL INDEX
   HX - HEAT INDEX
  VSB - VISIBILITY




USA.gov is the U.S. government's official web portal to all federal, state and local government web resources and services.